Time,TemperatureF,DewpointF,PressureIn,WindDirection,WindDirectionDegrees,WindSpeedMPH,WindSpeedGustMPH,Humidity,HourlyPrecipIn,Conditions,Clouds,dailyrainin,SoftwareType,DateUTC
2013-06-27 10:34:00,70.8,71.0,29.75,WNW,284,0.0,2.0,100,0.08,,,0.08,weatherlink.com 1.10,2013-06-27 14:34:00,
2013-06-27 10:35:00,70.8,71.0,29.75,WNW,284,0.0,2.0,100,0.08,,,0.08,weatherlink.com 1.10,2013-06-27 14:35:00,
2013-06-27 10:50:00,71.4,71.0,29.74,SSE,168,2.0,2.0,100,0.08,,,0.08,weatherlink.com 1.10,2013-06-27 14:50:00,
2013-06-27 11:05:00,72.0,72.0,29.75,WSW,238,0.0,4.0,100,0.08,,,0.08,weatherlink.com 1.10,2013-06-27 15:05:00,
2013-06-27 11:20:00,72.8,73.0,29.75,SSW,198,4.0,4.0,100,0.01,,,0.08,weatherlink.com 1.10,2013-06-27 15:20:00,
2013-06-27 11:35:00,73.1,73.0,29.75,SE,138,0.0,2.0,100,0.00,,,0.08,weatherlink.com 1.10,2013-06-27 15:35:00,
2013-06-27 11:50:00,73.7,74.0,29.75,WNW,300,0.0,1.0,100,0.00,,,0.08,weatherlink.com 1.10,2013-06-27 15:50:00,
2013-06-27 12:05:00,74.1,74.0,29.75,SSW,208,1.0,4.0,99,0.00,,,0.08,weatherlink.com 1.10,2013-06-27 16:05:00,
2013-06-27 12:20:00,75.4,75.0,29.75,SSW,199,3.0,4.0,98,0.00,,,0.08,weatherlink.com 1.10,2013-06-27 16:20:00,
2013-06-27 12:36:00,76.3,75.0,29.75,SSW,204,2.0,5.0,95,0.00,,,0.08,weatherlink.com 1.10,2013-06-27 16:36:00,
2013-06-27 12:51:00,78.4,77.0,29.75,SE,145,1.0,3.0,94,0.00,,,0.08,weatherlink.com 1.10,2013-06-27 16:51:00,
2013-06-27 13:06:00,80.5,76.0,29.74,SW,219,1.0,5.0,87,0.00,,,0.08,weatherlink.com 1.10,2013-06-27 17:06:00,
2013-06-27 13:21:00,82.6,77.0,29.74,South,188,4.0,5.0,82,0.00,,,0.08,weatherlink.com 1.10,2013-06-27 17:21:00,
2013-06-27 13:36:00,82.3,76.0,29.74,SW,231,2.0,5.0,80,0.00,,,0.08,weatherlink.com 1.10,2013-06-27 17:36:00,
2013-06-27 13:51:00,83.3,75.0,29.74,NW,315,1.0,6.0,75,0.00,,,0.08,weatherlink.com 1.10,2013-06-27 17:51:00,
2013-06-27 14:06:00,84.1,75.0,29.74,WSW,243,0.0,6.0,74,0.00,,,0.08,weatherlink.com 1.10,2013-06-27 18:06:00,
2013-06-27 14:21:00,83.6,75.0,29.74,SE,124,1.0,7.0,74,0.00,,,0.08,weatherlink.com 1.10,2013-06-27 18:21:00,
2013-06-27 14:36:00,84.0,75.0,29.74,SSW,208,1.0,3.0,74,0.00,,,0.08,weatherlink.com 1.10,2013-06-27 18:36:00,
2013-06-27 14:51:00,84.4,74.0,29.74,WSW,246,1.0,4.0,72,0.00,,,0.08,weatherlink.com 1.10,2013-06-27 18:51:00,
2013-06-27 15:07:00,85.7,74.0,29.73,WSW,248,1.0,5.0,68,0.00,,,0.08,weatherlink.com 1.10,2013-06-27 19:07:00,
2013-06-27 15:21:00,85.3,74.0,29.73,NE,51,3.0,5.0,68,0.00,,,0.08,weatherlink.com 1.10,2013-06-27 19:21:00,
2013-06-27 15:36:00,86.5,74.0,29.73,SSE,151,1.0,2.0,67,0.00,,,0.08,weatherlink.com 1.10,2013-06-27 19:36:00,
2013-06-27 15:51:00,87.1,75.0,29.73,ENE,61,2.0,3.0,68,0.00,,,0.08,weatherlink.com 1.10,2013-06-27 19:51:00,
2013-06-27 16:06:00,86.6,74.0,29.72,West,274,1.0,4.0,66,0.00,,,0.08,weatherlink.com 1.10,2013-06-27 20:06:00,
2013-06-27 16:21:00,87.0,74.0,29.72,NNW,333,1.0,5.0,65,0.00,,,0.08,weatherlink.com 1.10,2013-06-27 20:21:00,
2013-06-27 16:36:00,87.7,75.0,29.72,South,183,2.0,6.0,65,0.00,,,0.08,weatherlink.com 1.10,2013-06-27 20:36:00,
2013-06-27 16:52:00,87.1,74.0,29.72,SW,236,1.0,4.0,65,0.00,,,0.08,weatherlink.com 1.10,2013-06-27 20:52:00,
2013-06-27 17:06:00,86.8,74.0,29.71,West,266,1.0,4.0,66,0.00,,,0.08,weatherlink.com 1.10,2013-06-27 21:06:00,
2013-06-27 17:21:00,86.4,75.0,29.71,East,96,3.0,5.0,68,0.00,,,0.08,weatherlink.com 1.10,2013-06-27 21:21:00,
2013-06-27 17:36:00,85.4,74.0,29.70,WNW,287,0.0,5.0,68,0.00,,,0.08,weatherlink.com 1.10,2013-06-27 21:36:00,
2013-06-27 17:51:00,86.0,74.0,29.70,NNW,333,1.0,3.0,68,0.00,,,0.08,weatherlink.com 1.10,2013-06-27 21:51:00,
2013-06-27 18:21:00,86.5,73.0,29.70,WSW,252,1.0,4.0,65,0.00,,,0.08,weatherlink.com 1.10,2013-06-27 22:21:00,
2013-06-27 18:36:00,85.4,73.0,29.70,East,83,1.0,11.0,66,0.00,,,0.08,weatherlink.com 1.10,2013-06-27 22:36:00,
2013-06-27 18:51:00,84.3,72.0,29.70,West,266,1.0,5.0,67,0.00,,,0.08,weatherlink.com 1.10,2013-06-27 22:51:00,
2013-06-27 19:06:00,83.3,72.0,29.70,West,261,2.0,7.0,69,0.00,,,0.08,weatherlink.com 1.10,2013-06-27 23:06:00,
2013-06-27 19:21:00,82.7,72.0,29.69,WNW,288,0.0,1.0,71,0.00,,,0.08,weatherlink.com 1.10,2013-06-27 23:21:00,
2013-06-27 19:36:00,82.2,72.0,29.69,NW,317,0.0,2.0,72,0.00,,,0.08,weatherlink.com 1.10,2013-06-27 23:36:00,
2013-06-27 19:51:00,81.7,72.0,29.71,NW,317,0.0,1.0,73,0.00,,,0.08,weatherlink.com 1.10,2013-06-27 23:51:00,
2013-06-27 20:06:00,81.0,72.0,29.71,NNW,345,0.0,1.0,75,0.00,,,0.08,weatherlink.com 1.10,2013-06-28 00:06:00,
2013-06-27 20:22:00,80.6,72.0,29.71,WNW,301,0.0,1.0,75,0.00,,,0.08,weatherlink.com 1.10,2013-06-28 00:22:00,
2013-06-27 20:37:00,80.3,72.0,29.70,North,358,0.0,2.0,75,0.00,,,0.08,weatherlink.com 1.10,2013-06-28 00:37:00,
2013-06-27 20:52:00,80.0,71.0,29.70,WNW,301,0.0,1.0,75,0.00,,,0.08,weatherlink.com 1.10,2013-06-28 00:52:00,
2013-06-27 21:07:00,79.6,72.0,29.70,WNW,301,0.0,1.0,77,0.00,,,0.08,weatherlink.com 1.10,2013-06-28 01:07:00,
2013-06-27 21:22:00,79.0,72.0,29.70,WNW,301,0.0,0.0,78,0.00,,,0.08,weatherlink.com 1.10,2013-06-28 01:22:00,
2013-06-27 21:37:00,78.7,72.0,29.70,WNW,301,0.0,0.0,79,0.00,,,0.08,weatherlink.com 1.10,2013-06-28 01:37:00,
2013-06-27 21:52:00,78.3,72.0,29.69,WNW,301,0.0,1.0,80,0.00,,,0.08,weatherlink.com 1.10,2013-06-28 01:52:00,
2013-06-27 22:22:00,76.7,72.0,29.68,WNW,301,0.0,0.0,84,0.00,,,0.08,weatherlink.com 1.10,2013-06-28 02:22:00,
2013-06-27 22:37:00,76.5,72.0,29.69,WNW,301,0.0,0.0,85,0.00,,,0.08,weatherlink.com 1.10,2013-06-28 02:37:00,
2013-06-27 22:52:00,75.9,72.0,29.68,WSW,243,0.0,0.0,87,0.00,,,0.08,weatherlink.com 1.10,2013-06-28 02:52:00,
2013-06-27 23:07:00,75.3,72.0,29.68,WSW,243,0.0,0.0,88,0.00,,,0.08,weatherlink.com 1.10,2013-06-28 03:07:00,
2013-06-27 23:22:00,74.9,72.0,29.68,SW,224,0.0,1.0,90,0.00,,,0.08,weatherlink.com 1.10,2013-06-28 03:22:00,
2013-06-27 23:37:00,74.5,72.0,29.67,SSW,212,1.0,2.0,91,0.00,,,0.08,weatherlink.com 1.10,2013-06-28 03:37:00,
2013-06-27 23:52:00,73.9,72.0,29.67,SW,215,0.0,3.0,93,0.00,,,0.08,weatherlink.com 1.10,2013-06-28 03:52:00,